Time,TemperatureF,DewpointF,PressureIn,WindDirection,WindDirectionDegrees,WindSpeedMPH,WindSpeedGustMPH,Humidity,HourlyPrecipIn,Conditions,Clouds,dailyrainin,SoftwareType,DateUTC
2013-01-13 00:15:00,39.3,39.0,30.11,North,358,0.0,0.0,99,0.00,,,0.00,weatherlink.com 1.10,2013-01-13 05:15:00,
2013-01-13 00:30:00,39.1,39.0,30.10,North,6,0.0,0.0,99,0.00,,,0.00,weatherlink.com 1.10,2013-01-13 05:30:00,
2013-01-13 00:45:00,38.8,39.0,30.10,North,6,0.0,0.0,99,0.00,,,0.00,weatherlink.com 1.10,2013-01-13 05:45:00,
2013-01-13 01:00:00,38.7,39.0,30.10,North,6,0.0,0.0,99,0.00,,,0.00,weatherlink.com 1.10,2013-01-13 06:00:00,
2013-01-13 01:15:00,38.5,38.0,30.10,North,6,0.0,1.0,99,0.00,,,0.00,weatherlink.com 1.10,2013-01-13 06:15:00,
2013-01-13 01:30:00,38.4,38.0,30.11,NNE,29,0.0,0.0,99,0.00,,,0.00,weatherlink.com 1.10,2013-01-13 06:30:00,
2013-01-13 01:45:00,38.7,39.0,30.11,NNE,28,0.0,0.0,99,0.00,,,0.00,weatherlink.com 1.10,2013-01-13 06:45:00,
2013-01-13 02:01:00,38.8,39.0,30.11,NNE,29,0.0,0.0,99,0.00,,,0.00,weatherlink.com 1.10,2013-01-13 07:01:00,
2013-01-13 02:16:00,39.2,39.0,30.11,NNE,29,0.0,0.0,99,0.00,,,0.00,weatherlink.com 1.10,2013-01-13 07:16:00,
2013-01-13 02:31:00,39.4,39.0,30.11,NNE,28,0.0,0.0,99,0.00,,,0.00,weatherlink.com 1.10,2013-01-13 07:31:00,
2013-01-13 02:46:00,39.4,39.0,30.10,NNE,29,0.0,0.0,99,0.00,,,0.00,weatherlink.com 1.10,2013-01-13 07:46:00,
2013-01-13 03:01:00,39.1,39.0,30.11,NNE,29,0.0,0.0,99,0.00,,,0.00,weatherlink.com 1.10,2013-01-13 08:01:00,
2013-01-13 03:16:00,39.1,39.0,30.10,NNE,29,0.0,0.0,99,0.00,,,0.00,weatherlink.com 1.10,2013-01-13 08:16:00,
2013-01-13 03:31:00,39.5,39.0,30.10,NNE,29,0.0,0.0,99,0.00,,,0.00,weatherlink.com 1.10,2013-01-13 08:31:00,
2013-01-13 03:46:00,39.1,39.0,30.09,NNE,28,0.0,0.0,99,0.00,,,0.00,weatherlink.com 1.10,2013-01-13 08:46:00,
2013-01-13 04:01:00,38.9,39.0,30.09,NNE,29,0.0,0.0,99,0.00,,,0.00,weatherlink.com 1.10,2013-01-13 09:01:00,
2013-01-13 04:16:00,38.6,38.0,30.08,NNE,29,0.0,1.0,99,0.00,,,0.00,weatherlink.com 1.10,2013-01-13 09:16:00,
2013-01-13 04:31:00,38.9,39.0,30.07,NNE,29,0.0,1.0,99,0.00,,,0.00,weatherlink.com 1.10,2013-01-13 09:31:00,
2013-01-13 04:46:00,39.1,39.0,30.07,NNE,13,0.0,0.0,99,0.00,,,0.00,weatherlink.com 1.10,2013-01-13 09:46:00,
2013-01-13 05:01:00,39.1,39.0,30.08,NNE,13,0.0,0.0,99,0.00,,,0.00,weatherlink.com 1.10,2013-01-13 10:01:00,
2013-01-13 05:16:00,38.8,39.0,30.09,NNE,14,0.0,0.0,99,0.00,,,0.00,weatherlink.com 1.10,2013-01-13 10:16:00,
2013-01-13 05:31:00,38.8,39.0,30.09,NNE,14,0.0,0.0,99,0.00,,,0.00,weatherlink.com 1.10,2013-01-13 10:31:00,
2013-01-13 05:46:00,39.1,39.0,30.08,NNE,14,0.0,0.0,99,0.00,,,0.00,weatherlink.com 1.10,2013-01-13 10:46:00,
2013-01-13 06:01:00,39.0,39.0,30.09,NNE,14,0.0,0.0,99,0.00,,,0.00,weatherlink.com 1.10,2013-01-13 11:01:00,
2013-01-13 06:16:00,39.1,39.0,30.07,NNE,14,0.0,1.0,99,0.00,,,0.00,weatherlink.com 1.10,2013-01-13 11:16:00,
2013-01-13 06:31:00,39.1,39.0,30.07,NNE,14,0.0,0.0,99,0.00,,,0.00,weatherlink.com 1.10,2013-01-13 11:31:00,
2013-01-13 06:46:00,38.9,39.0,30.09,NNE,14,0.0,1.0,99,0.00,,,0.00,weatherlink.com 1.10,2013-01-13 11:46:00,
2013-01-13 07:01:00,38.9,39.0,30.09,NNE,14,0.0,0.0,99,0.00,,,0.00,weatherlink.com 1.10,2013-01-13 12:01:00,
2013-01-13 07:16:00,38.8,39.0,30.10,NNE,14,0.0,0.0,99,0.00,,,0.00,weatherlink.com 1.10,2013-01-13 12:16:00,
2013-01-13 07:31:00,38.7,39.0,30.10,NNE,14,0.0,0.0,99,0.00,,,0.00,weatherlink.com 1.10,2013-01-13 12:31:00,
2013-01-13 07:46:00,38.7,39.0,30.10,NNE,14,0.0,0.0,99,0.00,,,0.00,weatherlink.com 1.10,2013-01-13 12:46:00,
2013-01-13 08:01:00,38.9,39.0,30.11,NNE,28,0.0,1.0,99,0.00,,,0.00,weatherlink.com 1.10,2013-01-13 13:01:00,
2013-01-13 08:16:00,39.5,39.0,30.11,NNE,27,0.0,0.0,99,0.00,,,0.00,weatherlink.com 1.10,2013-01-13 13:16:00,
2013-01-13 08:31:00,39.6,39.0,30.12,NNE,27,0.0,0.0,99,0.00,,,0.00,weatherlink.com 1.10,2013-01-13 13:31:00,
2013-01-13 08:46:00,40.0,40.0,30.12,NNE,27,0.0,0.0,99,0.01,,,0.01,weatherlink.com 1.10,2013-01-13 13:46:00,
2013-01-13 09:01:00,40.0,40.0,30.12,NNE,27,0.0,1.0,99,0.01,,,0.01,weatherlink.com 1.10,2013-01-13 14:01:00,
2013-01-13 09:16:00,40.1,40.0,30.11,NNE,27,0.0,0.0,99,0.01,,,0.01,weatherlink.com 1.10,2013-01-13 14:16:00,
2013-01-13 09:31:00,40.3,40.0,30.11,NNE,27,0.0,0.0,99,0.01,,,0.01,weatherlink.com 1.10,2013-01-13 14:31:00,
2013-01-13 09:46:00,40.7,41.0,30.11,NNE,27,0.0,0.0,99,0.00,,,0.01,weatherlink.com 1.10,2013-01-13 14:46:00,
2013-01-13 10:01:00,41.1,41.0,30.12,NNE,27,0.0,0.0,99,0.00,,,0.01,weatherlink.com 1.10,2013-01-13 15:01:00,
2013-01-13 10:16:00,41.4,41.0,30.12,NNE,27,0.0,0.0,99,0.00,,,0.01,weatherlink.com 1.10,2013-01-13 15:16:00,
2013-01-13 10:31:00,41.5,41.0,30.11,NNE,27,0.0,0.0,99,0.00,,,0.01,weatherlink.com 1.10,2013-01-13 15:31:00,
2013-01-13 10:46:00,41.8,42.0,30.11,NNE,27,0.0,0.0,99,0.00,,,0.01,weatherlink.com 1.10,2013-01-13 15:46:00,
2013-01-13 11:01:00,42.4,42.0,30.10,NNE,27,0.0,0.0,99,0.00,,,0.01,weatherlink.com 1.10,2013-01-13 16:01:00,
2013-01-13 11:16:00,42.8,43.0,30.09,NNE,27,0.0,0.0,99,0.00,,,0.01,weatherlink.com 1.10,2013-01-13 16:16:00,
2013-01-13 11:31:00,43.3,43.0,30.09,NNE,27,0.0,0.0,99,0.00,,,0.01,weatherlink.com 1.10,2013-01-13 16:31:00,
2013-01-13 11:46:00,43.7,44.0,30.08,NNW,328,0.0,2.0,99,0.00,,,0.01,weatherlink.com 1.10,2013-01-13 16:46:00,
2013-01-13 12:01:00,43.8,44.0,30.07,NNW,330,0.0,2.0,99,0.00,,,0.01,weatherlink.com 1.10,2013-01-13 17:01:00,
2013-01-13 12:16:00,44.0,44.0,30.06,North,4,0.0,2.0,99,0.00,,,0.01,weatherlink.com 1.10,2013-01-13 17:16:00,
2013-01-13 12:31:00,44.3,44.0,30.06,NNW,333,0.0,0.0,99,0.00,,,0.01,weatherlink.com 1.10,2013-01-13 17:31:00,
2013-01-13 12:46:00,44.4,44.0,30.05,North,6,0.0,1.0,99,0.00,,,0.01,weatherlink.com 1.10,2013-01-13 17:46:00,
2013-01-13 13:01:00,44.8,45.0,30.04,North,6,0.0,0.0,99,0.00,,,0.01,weatherlink.com 1.10,2013-01-13 18:01:00,
2013-01-13 13:16:00,45.2,45.0,30.05,NNE,23,0.0,1.0,99,0.00,,,0.01,weatherlink.com 1.10,2013-01-13 18:16:00,
2013-01-13 13:31:00,45.3,45.0,30.04,NE,37,0.0,2.0,99,0.00,,,0.01,weatherlink.com 1.10,2013-01-13 18:31:00,
2013-01-13 13:46:00,45.4,45.0,30.04,NNE,25,0.0,1.0,99,0.00,,,0.01,weatherlink.com 1.10,2013-01-13 18:46:00,
2013-01-13 14:01:00,45.5,45.0,30.03,NW,314,1.0,3.0,99,0.00,,,0.01,weatherlink.com 1.10,2013-01-13 19:01:00,
2013-01-13 14:16:00,45.6,45.0,30.03,North,356,0.0,2.0,99,0.00,,,0.01,weatherlink.com 1.10,2013-01-13 19:16:00,
2013-01-13 14:32:00,45.8,46.0,30.02,NNE,13,0.0,3.0,99,0.00,,,0.01,weatherlink.com 1.10,2013-01-13 19:32:00,
2013-01-13 14:47:00,45.6,45.0,30.03,NNE,29,0.0,1.0,99,0.00,,,0.01,weatherlink.com 1.10,2013-01-13 19:47:00,
2013-01-13 15:02:00,45.8,46.0,30.03,North,351,0.0,2.0,99,0.00,,,0.01,weatherlink.com 1.10,2013-01-13 20:02:00,
2013-01-13 15:17:00,45.7,46.0,30.03,NNE,22,0.0,0.0,99,0.00,,,0.01,weatherlink.com 1.10,2013-01-13 20:17:00,
2013-01-13 15:32:00,45.9,46.0,30.02,North,349,0.0,2.0,99,0.00,,,0.01,weatherlink.com 1.10,2013-01-13 20:32:00,
2013-01-13 15:47:00,46.2,46.0,30.01,NW,323,0.0,2.0,100,0.00,,,0.01,weatherlink.com 1.10,2013-01-13 20:47:00,
2013-01-13 16:02:00,45.7,46.0,30.00,North,352,0.0,1.0,99,0.00,,,0.01,weatherlink.com 1.10,2013-01-13 21:02:00,
2013-01-13 16:17:00,45.5,45.0,30.01,North,352,0.0,1.0,99,0.00,,,0.01,weatherlink.com 1.10,2013-01-13 21:17:00,
2013-01-13 16:32:00,46.0,46.0,30.00,NNW,334,0.0,2.0,100,0.00,,,0.01,weatherlink.com 1.10,2013-01-13 21:32:00,
2013-01-13 16:47:00,45.6,45.0,29.99,NNW,345,0.0,1.0,99,0.00,,,0.01,weatherlink.com 1.10,2013-01-13 21:47:00,
2013-01-13 17:02:00,45.5,46.0,30.00,NNW,327,0.0,2.0,100,0.00,,,0.01,weatherlink.com 1.10,2013-01-13 22:02:00,
2013-01-13 17:17:00,45.5,46.0,29.99,North,11,0.0,0.0,100,0.00,,,0.01,weatherlink.com 1.10,2013-01-13 22:17:00,
2013-01-13 17:32:00,45.7,46.0,29.98,NNW,344,0.0,2.0,100,0.00,,,0.01,weatherlink.com 1.10,2013-01-13 22:32:00,
2013-01-13 17:47:00,45.7,46.0,29.98,NNW,340,0.0,3.0,100,0.00,,,0.01,weatherlink.com 1.10,2013-01-13 22:47:00,
2013-01-13 18:17:00,45.7,46.0,29.98,North,8,0.0,1.0,100,0.00,,,0.01,weatherlink.com 1.10,2013-01-13 23:17:00,
2013-01-13 18:47:00,46.2,46.0,29.98,North,8,0.0,1.0,100,0.00,,,0.01,weatherlink.com 1.10,2013-01-13 23:47:00,
2013-01-13 19:02:00,46.3,46.0,29.99,NE,42,0.0,0.0,100,0.00,,,0.01,weatherlink.com 1.10,2013-01-14 00:02:00,
2013-01-13 19:17:00,46.4,46.0,29.97,North,6,0.0,1.0,100,0.00,,,0.01,weatherlink.com 1.10,2013-01-14 00:17:00,
2013-01-13 19:32:00,46.6,47.0,29.98,North,11,0.0,2.0,100,0.00,,,0.01,weatherlink.com 1.10,2013-01-14 00:32:00,
2013-01-13 19:47:00,46.4,46.0,29.98,North,1,0.0,2.0,100,0.00,,,0.01,weatherlink.com 1.10,2013-01-14 00:47:00,
2013-01-13 20:02:00,46.6,47.0,29.98,NE,39,0.0,2.0,100,0.00,,,0.01,weatherlink.com 1.10,2013-01-14 01:02:00,
2013-01-13 20:17:00,46.7,47.0,29.98,NNE,12,0.0,2.0,99,0.00,,,0.01,weatherlink.com 1.10,2013-01-14 01:17:00,
2013-01-13 20:32:00,46.8,46.0,29.96,NNE,30,0.0,2.0,98,0.00,,,0.01,weatherlink.com 1.10,2013-01-14 01:32:00,
2013-01-13 20:47:00,46.6,46.0,29.98,North,8,0.0,1.0,98,0.00,,,0.01,weatherlink.com 1.10,2013-01-14 01:47:00,
2013-01-13 21:02:00,46.4,46.0,29.98,NNE,29,0.0,1.0,98,0.00,,,0.01,weatherlink.com 1.10,2013-01-14 02:02:00,
2013-01-13 21:17:00,46.5,46.0,29.96,NNE,18,0.0,1.0,99,0.00,,,0.01,weatherlink.com 1.10,2013-01-14 02:17:00,
2013-01-13 21:32:00,46.5,46.0,29.95,NNE,17,0.0,1.0,98,0.00,,,0.01,weatherlink.com 1.10,2013-01-14 02:32:00,
2013-01-13 21:47:00,46.9,46.0,29.96,NNE,20,0.0,0.0,98,0.00,,,0.01,weatherlink.com 1.10,2013-01-14 02:47:00,
2013-01-13 22:02:00,47.0,47.0,29.96,North,11,0.0,1.0,98,0.00,,,0.01,weatherlink.com 1.10,2013-01-14 03:02:00,
2013-01-13 22:17:00,47.4,47.0,29.96,North,6,0.0,2.0,98,0.00,,,0.01,weatherlink.com 1.10,2013-01-14 03:17:00,
2013-01-13 22:47:00,47.5,47.0,29.95,NNE,18,0.0,3.0,98,0.00,,,0.01,weatherlink.com 1.10,2013-01-14 03:47:00,
2013-01-13 23:02:00,47.7,47.0,29.96,North,10,0.0,2.0,97,0.00,,,0.01,weatherlink.com 1.10,2013-01-14 04:02:00,
2013-01-13 23:17:00,47.5,47.0,29.96,North,1,0.0,5.0,98,0.00,,,0.01,weatherlink.com 1.10,2013-01-14 04:17:00,
2013-01-13 23:32:00,47.3,47.0,29.95,NNE,27,0.0,1.0,98,0.00,,,0.01,weatherlink.com 1.10,2013-01-14 04:32:00,
2013-01-13 23:47:00,47.3,47.0,29.95,NNE,27,0.0,1.0,98,0.00,,,0.01,weatherlink.com 1.10,2013-01-14 04:47:00,